Flag for U.S.A. Weather past 2 weeks in Osage City, Kansas, U.S.A.

Now
50 °F

Sunny.


Feels Like: 43 °F
Forecast: 37 / 66 °F
Wind: 24 mph from South

Location: Forbes Field


UV Index: 5 (Moderate)

Visibility: 10 mi


Pressure: 29.87 "Hg

Humidity: 43%

Dew point: 28 °F

Location of Osage CityLocation

Historic Weather in Osage City

°F

Osage City temperature yesterday

Maximum temperature yesterday: 58 °F (at 4:53 PM)
Minimum temperature yesterday: 25 °F (at 5:53 AM)
Average temperature yesterday: 43 °F

Past Weeks' High & Low Weather Summary

 TemperatureHumidityPressure
High81 °F (Apr 9, 4:53 PM)97% (Apr 2, 11:53 PM)30.24 "Hg (Apr 2, 11:53 PM)
Low25 °F (Apr 15, 5:53 AM)18% (Apr 9, 4:53 PM)29.37 "Hg (Apr 13, 1:53 PM)
Average51 °F59%29.90 "Hg
* Reported Apr 1 7:53 AM — Apr 16 7:53 AM, Osage City, Weather by CustomWeather, © 2014

Note: Actual official high and low records may vary slightly from our data, if they occured in-between our weather recording intervals... More about our weather records

Advertising

Historic Weather Conditions — Data for Previous 24 hours

 ConditionsComfort  
Time TempWeatherWind HumidityBarometerVisibility
7:53 AM
Apr 16
47 °FSunny.21 mph48%29.88 "Hg10 mi
6:53 AM45 °FClear.16 mph49%29.88 "Hg10 mi
5:53 AM45 °FClear.16 mph49%29.88 "Hg10 mi
4:53 AM45 °FClear.20 mph49%29.88 "Hg10 mi
3:53 AM46 °FClear.20 mph50%29.90 "Hg10 mi
2:53 AM46 °FClear.20 mph50%29.92 "Hg10 mi
1:53 AM47 °FClear.17 mph48%29.94 "Hg10 mi
12:53 AM48 °FClear.18 mph46%29.96 "Hg10 mi
11:53 PM
Apr 15
47 °FClear.16 mph48%29.96 "Hg10 mi
10:53 PM48 °FClear.16 mph48%29.99 "Hg10 mi
9:53 PM48 °FClear.15 mph48%30.00 "Hg10 mi
8:53 PM50 °FSunny.14 mph44%29.99 "Hg10 mi
7:53 PM52 °FSunny.13 mph40%29.99 "Hg9 mi
6:53 PM55 °FSunny.14 mph34%30.01 "Hg7 mi
5:53 PM57 °FSunny.13 mph31%30.03 "Hg7 mi
4:53 PM58 °FSunny.10 mph27%30.05 "Hg10 mi
3:53 PM57 °FSunny.9 mph28%30.09 "Hg8 mi
2:53 PM55 °FSunny.9 mph33%30.11 "Hg10 mi
1:53 PM52 °FSunny.7 mph34%30.15 "Hg10 mi
12:53 PM49 °FSunny.5 mph33%30.19 "Hg10 mi
10:53 AM45 °FSunny.No wind42%30.21 "Hg10 mi
9:53 AM42 °FSunny.No wind53%30.24 "Hg10 mi
Weather by CustomWeather, © 2014

See weather overview